When you browse on this site, cookies collect data to enhance your experience and personalize the content and advertising you see.
Visit our Privacy Policy to learn more. By continuing to use the site, you agree to this use of cookies and data.
  • In Portugal
  • List of Countries
  • For 7 days
  • Water Temperature
  • Satellite Maps
  • Weather Map
  • Weather Widgets
  • user-avatar
    Login

    Hourly Weather Kaprun

    Today, 16 December, Sunday

    Time Temperature Precipitation Wind Pressure Humidity
    00:00 -15°C° 0 mm 1 mps 590 mmHg 65%
    01:00 -16°C° 0 mm 2 mps 590 mmHg 58%
    02:00 -14°C° 0 mm 1 mps 590 mmHg 57%
    03:00 -13°C° 0 mm 1 mps 590 mmHg 55%
    04:00 -13°C° 0 mm 1 mps 590 mmHg 54%
    05:00 -12°C° 0 mm 1 mps 590 mmHg 56%
    06:00 -11°C° 0 mm 1 mps 590 mmHg 57%
    07:00 -10°C° 0 mm 1 mps 590 mmHg 58%
    08:00 -9°C° 0 mm 1 mps 591 mmHg 60%
    09:00 -8°C° 0 mm 1 mps 591 mmHg 63%
    10:00 -7°C° 0 mm 1 mps 592 mmHg 65%
    11:00 -6°C° 0.1 mm 1 mps 592 mmHg 67%
    12:00 -4°C° 0.1 mm 1 mps 592 mmHg 69%
    13:00 -4°C° 0.1 mm 1 mps 592 mmHg 72%
    14:00 -4°C° 0.1 mm 1 mps 592 mmHg 75%
    15:00 -4°C° 0.1 mm 1 mps 592 mmHg 79%
    16:00 -6°C° 0.1 mm 0 mps 592 mmHg 83%
    17:00 -6°C° 0.2 mm 0 mps 592 mmHg 85%
    18:00 -6°C° 0.2 mm 0 mps 592 mmHg 87%
    19:00 -7°C° 0.2 mm 0 mps 592 mmHg 88%
    20:00 -7°C° 0.2 mm 0 mps 592 mmHg 90%
    21:00 -7°C° 0.2 mm 0 mps 593 mmHg 91%
    22:00 -7°C° 0.2 mm 1 mps 593 mmHg 92%
    23:00 -7°C° 0.1 mm 1 mps 593 mmHg 92%

    Tomorrow, 17 December, Monday

    Time Temperature Precipitation Wind Pressure Humidity
    00:00 -7°C° 0.1 mm 1 mps 593 mmHg 92%
    01:00 -7°C° 0.1 mm 1 mps 593 mmHg 93%
    02:00 -7°C° 0 mm 1 mps 593 mmHg 93%
    03:00 -7°C° 0 mm 1 mps 592 mmHg 93%
    04:00 -7°C° 0 mm 1 mps 592 mmHg 93%
    05:00 -8°C° 0 mm 1 mps 592 mmHg 92%
    06:00 -8°C° 0 mm 1 mps 593 mmHg 92%
    07:00 -8°C° 0 mm 1 mps 593 mmHg 92%
    08:00 -8°C° 0 mm 1 mps 593 mmHg 90%
    09:00 -7°C° 0 mm 1 mps 594 mmHg 88%
    10:00 -7°C° 0 mm 1 mps 595 mmHg 86%
    11:00 -7°C° 0 mm 2 mps 595 mmHg 85%
    12:00 -6°C° 0 mm 2 mps 595 mmHg 84%
    13:00 -6°C° 0 mm 2 mps 596 mmHg 83%
    14:00 -7°C° 0 mm 2 mps 596 mmHg 85%
    15:00 -7°C° 0 mm 2 mps 596 mmHg 88%
    16:00 -8°C° 0 mm 2 mps 596 mmHg 90%
    17:00 -9°C° 0 mm 2 mps 596 mmHg 89%
    18:00 -9°C° 0 mm 2 mps 597 mmHg 88%
    19:00 -10°C° 0 mm 2 mps 597 mmHg 87%
    20:00 -10°C° 0.1 mm 2 mps 598 mmHg 87%
    21:00 -10°C° 0.1 mm 2 mps 598 mmHg 86%
    22:00 -10°C° 0.1 mm 2 mps 598 mmHg 85%
    23:00 -10°C° 0 mm 2 mps 598 mmHg 86%

    Day after tomorrow, 18 December, Tuesday

    Time Temperature Precipitation Wind Pressure Humidity
    00:00 -10°C° 0 mm 2 mps 598 mmHg 87%
    01:00 -12°C° 0 mm 2 mps 598 mmHg 87%
    02:00 -12°C° 0 mm 2 mps 598 mmHg 88%
    03:00 -12°C° 0 mm 2 mps 598 mmHg 88%
    04:00 -13°C° 0 mm 2 mps 598 mmHg 88%
    05:00 -11°C° 0 mm 1 mps 598 mmHg 84%
    06:00 -11°C° 0 mm 1 mps 598 mmHg 81%
    07:00 -11°C° 0 mm 1 mps 598 mmHg 77%
    08:00 -10°C° 0 mm 1 mps 598 mmHg 75%
    09:00 -8°C° 0 mm 1 mps 599 mmHg 73%
    10:00 -7°C° 0 mm 1 mps 599 mmHg 70%
    11:00 -4°C° 0 mm 1 mps 600 mmHg 70%
    12:00 -3°C° 0 mm 1 mps 600 mmHg 70%
    13:00 -2°C° 0 mm 1 mps 600 mmHg 69%
    14:00 -3°C° 0 mm 1 mps 599 mmHg 72%
    15:00 -4°C° 0 mm 1 mps 598 mmHg 74%
    16:00 -7°C° 0 mm 1 mps 597 mmHg 76%
    17:00 -7°C° 0 mm 1 mps 597 mmHg 72%
    18:00 -8°C° 0 mm 1 mps 597 mmHg 68%
    19:00 -10°C° 0 mm 2 mps 596 mmHg 64%
    20:00 -10°C° 0 mm 2 mps 596 mmHg 62%
    21:00 -10°C° 0 mm 2 mps 596 mmHg 59%
    22:00 -10°C° 0 mm 2 mps 596 mmHg 57%
    23:00 -10°C° 0 mm 2 mps 595 mmHg 55%

    19 December, Wednesday

    Time Temperature Precipitation Wind Pressure Humidity
    00:00 -10°C° 0 mm 2 mps 595 mmHg 54%
    01:00 -10°C° 0 mm 2 mps 595 mmHg 52%
    02:00 -9°C° 0 mm 2 mps 595 mmHg 51%
    03:00 -9°C° 0 mm 2 mps 595 mmHg 49%
    04:00 -9°C° 0 mm 2 mps 595 mmHg 48%
    05:00 -8°C° 0 mm 1 mps 595 mmHg 47%
    06:00 -7°C° 0 mm 1 mps 595 mmHg 46%
    07:00 -7°C° 0 mm 1 mps 595 mmHg 45%
    08:00 -6°C° 0 mm 1 mps 595 mmHg 48%
    09:00 -4°C° 0 mm 1 mps 596 mmHg 51%
    10:00 -3°C° 0 mm 1 mps 596 mmHg 54%
    11:00 -2°C° 0 mm 1 mps 596 mmHg 58%
    12:00 -1°C° 0 mm 1 mps 596 mmHg 62%
    13:00 -1°C° 0 mm 1 mps 596 mmHg 65%
    14:00 -2°C° 0 mm 1 mps 595 mmHg 67%
    15:00 -3°C° 0 mm 1 mps 595 mmHg 68%
    16:00 -6°C° 0 mm 1 mps 594 mmHg 69%
    17:00 -8°C° 0 mm 2 mps 593 mmHg 68%
    18:00 -8°C° 0 mm 2 mps 593 mmHg 68%
    19:00 -9°C° 0 mm 2 mps 593 mmHg 67%
    20:00 -9°C° 0 mm 2 mps 593 mmHg 69%
    21:00 -10°C° 0 mm 2 mps 592 mmHg 71%
    22:00 -10°C° 0 mm 2 mps 592 mmHg 72%
    23:00 -9°C° 0 mm 2 mps 593 mmHg 74%

    20 December, Thursday

    Time Temperature Precipitation Wind Pressure Humidity
    00:00 -9°C° 0 mm 2 mps 593 mmHg 76%
    01:00 -8°C° 0 mm 2 mps 593 mmHg 79%
    02:00 -9°C° 0.1 mm 2 mps 593 mmHg 81%
    03:00 -8°C° 0.1 mm 1 mps 593 mmHg 83%
    04:00 -8°C° 0.1 mm 1 mps 593 mmHg 85%
    05:00 -8°C° 0.2 mm 1 mps 593 mmHg 87%
    06:00 -7°C° 0.2 mm 1 mps 594 mmHg 88%
    07:00 -7°C° 0.2 mm 1 mps 594 mmHg 90%
    08:00 -6°C° 0.3 mm 0 mps 594 mmHg 91%
    09:00 -6°C° 0.3 mm 0 mps 595 mmHg 91%
    10:00 -5°C° 0.3 mm 0 mps 596 mmHg 92%
    11:00 -4°C° 0.4 mm 1 mps 596 mmHg 92%
    12:00 -3°C° 0.4 mm 1 mps 596 mmHg 92%
    13:00 -3°C° 0.4 mm 1 mps 596 mmHg 92%
    14:00 -3°C° 0.3 mm 1 mps 596 mmHg 93%
    15:00 -4°C° 0.3 mm 1 mps 596 mmHg 94%
    16:00 -4°C° 0.3 mm 1 mps 596 mmHg 95%
    17:00 -4°C° 0.2 mm 1 mps 596 mmHg 95%
    18:00 -6°C° 0.2 mm 1 mps 596 mmHg 95%
    19:00 -7°C° 0.2 mm 2 mps 596 mmHg 95%
    20:00 -8°C° 0.2 mm 2 mps 596 mmHg 95%
    21:00 -8°C° 0.2 mm 2 mps 597 mmHg 95%
    22:00 -8°C° 0.2 mm 2 mps 597 mmHg 94%
    23:00 -8°C° 0.1 mm 2 mps 597 mmHg 94%

    21 December, Friday

    Time Temperature Precipitation Wind Pressure Humidity
    00:00 -9°C° 0.1 mm 2 mps 597 mmHg 94%
    01:00 -9°C° 0.1 mm 2 mps 597 mmHg 94%
    02:00 -8°C° 0 mm 1 mps 597 mmHg 93%
    03:00 -9°C° 0 mm 1 mps 596 mmHg 93%
    04:00 -9°C° 0 mm 1 mps 596 mmHg 92%
    05:00 -10°C° 0 mm 1 mps 596 mmHg 91%
    06:00 -10°C° 0 mm 1 mps 596 mmHg 90%
    07:00 -10°C° 0 mm 1 mps 596 mmHg 89%
    08:00 -9°C° 0 mm 1 mps 596 mmHg 86%
    09:00 -8°C° 0 mm 1 mps 597 mmHg 82%
    10:00 -7°C° 0 mm 1 mps 597 mmHg 79%
    11:00 -6°C° 0 mm 1 mps 597 mmHg 77%
    12:00 -3°C° 0 mm 1 mps 597 mmHg 75%
    13:00 -2°C° 0 mm 1 mps 597 mmHg 74%
    14:00 -3°C° 0 mm 1 mps 597 mmHg 76%
    15:00 -4°C° 0 mm 1 mps 596 mmHg 78%
    16:00 -6°C° 0 mm 1 mps 596 mmHg 80%
    17:00 -7°C° 0 mm 2 mps 596 mmHg 79%
    18:00 -6°C° 0 mm 2 mps 596 mmHg 78%
    19:00 -6°C° 0 mm 2 mps 596 mmHg 77%
    20:00 -6°C° 0.4 mm 2 mps 596 mmHg 80%
    21:00 -4°C° 0.4 mm 1 mps 596 mmHg 83%
    22:00 -4°C° 0.4 mm 1 mps 597 mmHg 86%
    23:00 -3°C° 0.4 mm 1 mps 597 mmHg 86%
    Show more